Wind_Speed
16 15 14 14 15 16 17 18 18 18 17 16 17 18 17 17 17 17 16 14 13 13 13 12 12 13 12 12 11 11 12 13 13 13 13 14 14 14 13 14 14 14
17 16 14 15 16 16 17 19 19 19 18 17 19 20 19 18 18 17 15 13 12 12 13 13 13 13 12 12 11 11 12 12 12 12 13 14 14 14 14 14 14 14
18 17 15 15 16 16 17 19 20 20 19 19 21 20 19 18 17 16 14 13 13 13 13 14 14 14 13 12 11 11 12 12 12 12 13 13 14 14 15 14 14 14
18 18 17 15 16 18 18 19 19 20 19 20 21 20 18 17 15 14 13 13 13 13 14 14 13 13 12 12 12 11 11 11 12 12 12 12 12 13 14 14 14 14
19 19 17 16 17 19 19 20 20 20 19 20 21 21 18 16 14 14 14 14 14 14 13 12 11 10 11 12 12 10 10 10 10 10 11 11 11 11 11 13 13 13
19 19 18 18 19 20 20 21 21 20 20 21 22 22 20 17 15 15 15 14 14 13 12 11 10 10 12 12 11 9 9 10 10 10 11 11 10 10 10 10 11 11
20 19 20 20 20 19 19 21 22 21 21 21 20 21 22 20 17 16 16 15 15 14 13 11 11 11 11 11 10 9 9 9 10 10 10 9 9 9 9 9 10 10
22 21 23 23 21 19 19 22 22 21 22 21 20 21 21 18 17 17 16 16 15 14 13 12 11 11 11 11 10 9 9 9 9 9 9 9 9 9 9 10 10 10
24 23 23 23 21 18 19 20 21 21 22 22 21 23 22 18 17 18 17 16 15 13 13 12 11 11 11 10 10 9 9 9 8 8 8 8 9 9 10 10 10 10
23 21 21 22 21 18 18 19 21 22 22 22 22 23 23 21 20 19 18 16 14 13 13 11 10 10 10 9 9 9 9 9 9 9 9 9 9 9 10 10 11 11
18 17 18 21 21 20 20 21 24 23 22 22 22 23 24 23 21 19 18 16 15 13 12 10 10 9 9 9 9 9 9 10 10 10 10 10 10 10 11 12 12 12
14 15 16 18 19 21 22 23 25 25 24 24 24 25 27 25 22 20 19 17 15 13 12 11 10 10 9 9 9 9 10 11 11 11 11 10 9 9 11 12 13 12
15 15 16 17 18 20 21 21 23 25 25 26 27 28 27 25 22 21 20 18 16 14 13 12 11 10 10 9 10 11 11 10 11 11 11 10 9 9 11 12 12 11
17 17 17 17 18 19 20 22 23 24 24 24 26 27 27 25 23 22 21 19 17 15 14 13 12 11 10 9 10 10 10 10 11 11 11 10 10 10 11 11 11 11
19 18 18 17 18 20 21 21 22 24 23 23 24 25 26 25 24 23 22 19 18 17 15 14 12 11 10 10 9 8 9 10 11 11 11 11 10 10 11 11 11 11
20 20 19 18 19 21 22 21 21 24 26 27 27 25 25 25 25 24 23 21 19 18 15 14 13 12 10 10 9 8 9 10 11 11 12 11 11 11 11 12 12 12
20 20 19 20 21 21 21 21 21 24 26 28 28 26 25 26 25 25 24 23 21 18 16 15 14 12 11 11 10 9 10 11 11 12 12 12 12 13 13 13 13 13
20 20 19 19 20 18 18 20 22 24 27 28 27 26 25 26 26 25 24 23 21 19 17 16 15 14 13 12 12 12 12 13 13 13 14 14 14 15 15 15 15 14
14 18 19 19 19 18 18 19 21 24 27 28 26 25 25 25 26 27 26 24 22 20 19 18 17 16 15 15 15 15 15 15 15 15 16 16 16 16 16 16 16 16
7 10 15 18 19 20 18 18 20 24 27 28 26 23 23 26 27 28 28 26 23 22 21 20 19 19 18 18 18 18 18 19 18 18 18 17 17 17 17 17 17 17
5 6 9 13 16 16 16 19 22 24 25 26 26 23 23 26 28 28 28 27 25 24 24 23 22 20 20 20 20 20 21 22 22 20 19 19 18 18 18 18 17 19
3 5 7 11 14 14 16 20 22 21 22 26 26 25 25 26 26 27 27 26 26 26 25 24 23 23 22 22 22 22 22 23 24 22 21 20 20 20 21 19 18 19
5 6 8 10 13 15 16 17 18 19 20 26 28 27 26 26 26 27 27 26 26 27 26 25 25 25 25 26 25 25 24 25 26 24 22 22 23 22 23 23 22 21
6 7 8 9 10 14 16 14 16 18 19 22 26 26 25 26 27 26 27 26 26 25 25 26 26 25 27 27 26 25 24 24 25 25 25 26 26 24 25 27 27 26
5 5 6 8 8 9 13 12 13 18 18 19 23 24 24 25 26 27 29 29 28 27 26 26 25 25 26 27 25 24 24 24 25 27 29 29 29 28 28 29 29 28
4 4 4 6 6 4 8 9 9 12 15 17 22 23 23 23 25 26 26 26 28 29 28 27 26 27 27 26 24 24 25 25 26 29 30 29 28 28 29 30 30 30
Wind_Direction
245 244 244 245 244 242 238 235 233 231 231 221 205 200 198 193 194 198 199 199 202 205 206 206 209 215 217 216 213 213 217 219 218 220 224 228 230 229 229 230 230 228
240 238 241 244 243 241 236 231 227 223 222 217 206 202 201 197 196 198 196 196 201 205 204 204 208 212 214 212 211 215 218 220 221 223 227 230 231 229 228 227 228 228
242 241 240 242 241 239 236 232 228 224 219 212 209 208 204 199 198 197 196 198 202 203 202 204 207 208 211 212 214 217 217 219 222 225 228 229 228 227 226 226 227 228
241 240 238 237 233 234 237 236 232 229 223 214 210 211 207 200 197 197 197 199 200 201 203 205 205 205 209 215 217 218 217 220 223 226 228 228 225 226 228 226 225 227
236 234 232 230 226 229 235 235 232 229 225 217 211 210 206 200 197 197 197 198 200 201 202 203 203 205 211 216 217 216 218 223 226 228 230 226 223 226 231 229 224 224
227 227 227 223 220 225 230 232 229 226 225 221 214 208 201 195 197 198 195 196 201 203 203 202 202 207 212 216 219 218 219 224 227 229 229 227 225 228 230 225 219 219
214 219 224 221 219 223 227 227 225 222 225 225 216 211 205 193 192 197 195 195 199 200 202 201 200 204 211 218 223 223 223 225 226 226 227 228 229 229 225 218 214 218
207 214 220 219 218 222 226 226 221 218 221 222 215 215 215 201 189 194 196 194 194 193 194 198 197 200 207 215 222 224 222 223 223 222 224 228 229 227 221 216 217 221
207 214 218 218 216 218 224 222 217 215 217 217 213 212 214 205 192 194 196 193 191 191 195 201 202 205 210 212 214 216 215 215 214 214 217 222 224 222 219 216 216 219
209 214 216 215 212 214 220 216 212 213 212 210 210 209 209 202 193 193 193 191 193 196 200 204 206 212 216 214 213 212 209 206 204 204 207 212 215 214 214 213 211 214
219 224 222 218 214 211 211 209 207 207 206 204 205 206 203 198 193 192 191 191 194 195 199 203 206 212 214 213 213 207 202 202 198 198 203 207 210 210 208 207 207 211
231 234 235 234 229 220 214 211 206 202 199 197 199 203 201 196 193 193 191 190 190 190 194 199 203 207 209 208 206 203 204 201 193 195 203 205 206 209 209 208 209 213
239 240 245 247 243 235 227 219 211 202 198 196 196 201 202 198 195 194 191 190 187 186 192 197 199 204 208 206 202 202 204 199 193 197 204 203 201 207 213 214 215 218
242 243 247 249 248 241 229 220 212 203 200 199 195 197 200 199 197 194 191 190 188 188 194 197 199 205 208 207 206 207 204 196 195 201 205 206 204 207 213 216 219 222
243 242 241 241 244 239 228 221 212 202 200 198 192 196 200 198 197 195 193 193 193 194 198 200 205 211 212 211 214 215 209 202 200 202 206 209 208 210 214 214 215 219
247 245 240 236 238 236 229 224 214 204 201 195 190 196 202 199 199 198 195 196 198 198 200 203 211 217 218 219 221 221 218 215 212 210 211 212 210 210 212 212 212 214
249 246 242 237 236 232 225 221 210 199 196 193 192 199 204 202 203 203 200 200 202 201 203 209 217 221 223 226 229 227 224 223 220 216 216 216 213 209 207 208 209 212
246 242 237 234 233 228 221 218 211 199 192 191 194 200 203 204 205 206 207 207 206 206 208 214 222 227 228 232 235 233 231 228 224 220 220 219 217 213 210 208 208 211
253 241 233 230 227 225 221 218 217 210 199 193 196 200 202 206 208 208 210 211 211 211 213 217 224 231 233 234 236 236 234 233 230 227 227 226 223 220 218 218 218 217
297 257 235 229 225 225 226 218 216 218 210 200 199 201 203 207 210 211 212 212 212 214 217 221 225 230 234 236 237 238 236 235 233 233 235 235 233 229 226 224 224 222
314 279 245 237 233 232 227 214 212 217 212 204 202 201 204 209 211 212 213 212 214 217 220 223 225 228 233 236 238 240 240 237 234 233 234 235 235 234 230 223 222 225
288 273 250 242 243 239 221 210 216 223 213 205 205 203 204 210 210 210 212 211 214 218 221 224 227 229 233 237 239 241 243 241 237 234 232 232 230 230 232 231 229 230
267 265 264 255 246 245 236 224 229 237 218 204 208 209 206 209 210 209 211 212 213 219 223 227 231 233 235 236 236 237 239 240 239 235 232 232 231 231 237 243 241 239
280 273 279 274 248 246 255 242 222 225 217 205 211 216 210 209 211 211 212 212 212 217 224 229 233 236 235 233 231 231 233 235 236 236 234 236 237 239 246 251 251 251
292 283 280 282 267 251 264 260 224 220 223 212 211 216 212 208 212 215 216 218 219 223 230 233 229 227 229 230 229 230 233 234 236 238 239 242 245 248 252 256 258 260
307 303 283 287 296 244 231 249 239 229 233 221 208 210 211 206 207 211 214 219 222 225 231 234 226 218 219 222 224 227 232 237 240 242 245 248 253 256 257 260 262 266
Height
3117 3116 3115 3114 3114 3114 3115 3117 3118 3119 3119 3120 3120 3121 3122 3123 3125 3127 3129 3130 3131 3132 3133 3134 3136 3137 3138 3139 3140 3141 3142 3143 3144 3145 3146 3147 3148 3149 3150 3151 3152 3153
3115 3114 3114 3113 3113 3113 3114 3115 3116 3116 3118 3119 3120 3121 3122 3123 3125 3126 3128 3129 3130 3131 3133 3134 3135 3136 3137 3138 3139 3140 3141 3142 3143 3144 3145 3145 3146 3147 3148 3149 3150 3151
3113 3113 3112 3112 3112 3112 3113 3114 3115 3115 3116 3117 3119 3120 3121 3123 3124 3126 3127 3128 3130 3131 3132 3133 3134 3135 3136 3137 3138 3139 3140 3141 3142 3143 3144 3144 3145 3146 3147 3148 3149 3150
3110 3111 3111 3111 3111 3111 3111 3113 3114 3115 3116 3117 3119 3120 3122 3123 3124 3126 3127 3128 3129 3130 3131 3132 3134 3135 3136 3137 3138 3139 3140 3140 3141 3142 3142 3143 3144 3144 3145 3146 3147 3148
3108 3109 3109 3110 3110 3109 3110 3111 3113 3115 3116 3117 3119 3120 3122 3123 3124 3126 3127 3128 3129 3130 3131 3132 3134 3135 3136 3136 3137 3138 3139 3139 3140 3141 3141 3142 3143 3143 3144 3145 3146 3147
3106 3107 3108 3108 3108 3108 3109 3111 3113 3114 3116 3117 3119 3120 3121 3122 3124 3125 3127 3128 3129 3130 3131 3132 3134 3134 3135 3136 3137 3137 3138 3139 3139 3140 3140 3141 3142 3143 3143 3144 3145 3146
3103 3105 3105 3106 3106 3107 3108 3110 3112 3113 3115 3117 3119 3120 3120 3120 3122 3124 3126 3127 3129 3130 3131 3132 3133 3134 3135 3135 3136 3136 3137 3138 3138 3139 3140 3141 3141 3142 3143 3143 3144 3145
3099 3100 3101 3102 3103 3105 3107 3108 3110 3112 3114 3116 3118 3120 3121 3120 3121 3123 3125 3127 3128 3130 3131 3132 3133 3133 3134 3134 3135 3136 3137 3137 3138 3139 3139 3140 3140 3141 3142 3142 3143 3144
3094 3096 3098 3100 3101 3103 3105 3106 3108 3110 3112 3115 3117 3120 3121 3121 3121 3122 3124 3126 3128 3129 3130 3131 3132 3133 3133 3134 3135 3135 3136 3137 3137 3138 3139 3139 3140 3141 3141 3142 3143 3144
3092 3094 3097 3098 3100 3101 3103 3105 3107 3109 3111 3114 3116 3118 3121 3121 3121 3122 3124 3125 3127 3128 3129 3130 3131 3132 3133 3133 3134 3135 3135 3136 3137 3137 3138 3139 3139 3140 3141 3141 3142 3143
3094 3096 3098 3098 3098 3099 3099 3102 3104 3106 3109 3113 3115 3117 3119 3120 3120 3122 3124 3125 3127 3128 3129 3130 3130 3131 3132 3133 3134 3134 3135 3135 3136 3137 3137 3138 3138 3139 3140 3141 3141 3142
3096 3097 3098 3099 3099 3098 3098 3100 3102 3104 3107 3111 3114 3116 3118 3119 3120 3121 3123 3125 3126 3127 3128 3129 3130 3131 3131 3132 3133 3134 3134 3135 3136 3136 3137 3137 3138 3139 3139 3140 3141 3141
3095 3096 3097 3098 3099 3099 3100 3102 3103 3105 3106 3108 3110 3114 3117 3118 3119 3121 3122 3123 3125 3126 3128 3129 3130 3131 3131 3132 3133 3133 3134 3135 3135 3136 3136 3137 3137 3138 3139 3139 3140 3141
3094 3094 3096 3097 3098 3098 3099 3101 3102 3104 3106 3108 3109 3112 3115 3117 3118 3119 3121 3122 3124 3125 3127 3129 3130 3130 3131 3132 3132 3133 3134 3134 3135 3135 3136 3137 3137 3137 3138 3139 3140 3141
3092 3092 3094 3095 3096 3096 3096 3098 3100 3103 3105 3107 3109 3111 3113 3115 3116 3118 3120 3121 3123 3125 3126 3128 3129 3130 3131 3132 3132 3133 3134 3134 3134 3135 3135 3136 3137 3137 3138 3138 3139 3140
3090 3091 3092 3093 3094 3095 3095 3096 3099 3101 3103 3105 3107 3109 3112 3114 3115 3117 3119 3120 3122 3124 3125 3127 3128 3129 3130 3131 3132 3133 3133 3134 3134 3135 3135 3135 3136 3137 3137 3138 3138 3139
3088 3089 3090 3091 3092 3094 3095 3096 3097 3099 3101 3103 3105 3108 3110 3112 3114 3116 3117 3119 3121 3122 3124 3125 3126 3127 3128 3130 3131 3132 3133 3133 3133 3134 3134 3135 3135 3135 3136 3137 3137 3138
3086 3088 3089 3090 3091 3093 3094 3095 3096 3097 3099 3101 3103 3106 3109 3111 3113 3115 3116 3118 3119 3121 3122 3124 3125 3126 3127 3128 3130 3131 3132 3132 3133 3133 3133 3134 3134 3134 3135 3135 3136 3136
3084 3086 3087 3088 3090 3091 3092 3094 3095 3096 3098 3099 3101 3104 3108 3110 3112 3113 3115 3117 3118 3119 3121 3122 3124 3125 3126 3127 3128 3130 3130 3131 3131 3132 3132 3133 3133 3133 3134 3134 3135 3135
3084 3085 3086 3087 3088 3090 3090 3092 3094 3095 3096 3098 3100 3103 3106 3108 3110 3112 3113 3115 3117 3118 3119 3121 3122 3123 3125 3126 3127 3128 3129 3129 3129 3130 3131 3131 3132 3133 3133 3134 3134 3134
3085 3085 3085 3086 3087 3088 3090 3091 3092 3093 3096 3098 3099 3102 3104 3106 3108 3110 3111 3113 3115 3116 3118 3119 3120 3122 3123 3124 3125 3126 3127 3127 3128 3128 3129 3130 3131 3131 3132 3132 3132 3133
3085 3086 3086 3087 3087 3088 3090 3091 3091 3092 3095 3097 3097 3099 3102 3104 3106 3108 3109 3111 3113 3114 3116 3117 3118 3120 3121 3122 3123 3124 3125 3126 3127 3127 3128 3129 3129 3129 3130 3130 3131 3131
3085 3086 3086 3087 3087 3088 3088 3089 3090 3091 3093 3095 3096 3097 3100 3102 3104 3106 3107 3108 3110 3112 3114 3115 3116 3118 3119 3120 3121 3122 3123 3124 3125 3125 3126 3127 3127 3127 3128 3129 3129 3129
3086 3086 3087 3086 3087 3087 3087 3088 3089 3090 3092 3094 3096 3097 3099 3101 3103 3104 3105 3106 3108 3109 3111 3113 3114 3115 3117 3117 3118 3119 3121 3122 3123 3123 3124 3124 3125 3126 3126 3127 3127 3127
3086 3087 3087 3086 3086 3087 3087 3087 3088 3090 3091 3094 3096 3096 3098 3101 3101 3102 3103 3104 3106 3108 3109 3111 3112 3113 3114 3115 3116 3117 3118 3119 3120 3120 3121 3121 3122 3123 3124 3124 3124 3125
3087 3087 3087 3087 3087 3087 3088 3088 3088 3090 3091 3093 3094 3095 3097 3099 3100 3100 3102 3103 3105 3107 3108 3109 3110 3111 3112 3113 3113 3114 3115 3117 3117 3117 3118 3119 3120 3121 3121 3121 3122 3123